Location: München
(48.1351°N, 11.5820°E)
Time: 12:43:13
(UTC+01:00)

ISS - Visible Passes

Search period start: 15 March 2026 00:00
Search period end: 25 March 2026 00:00
Orbit: 417 x 426 km, 51.6° (Epoch: 14 March)

Date Brightness Start Highest point End Pass type
(mag) Time Alt. Az. Time Alt. Az. Time Alt. Az.
15 Mar -3.6 19:49:23 10° WSW 19:52:47 74° NNW 19:54:11 33° ENE visible
15 Mar -0.5 21:26:38 10° WNW 21:27:12 14° WNW 21:27:12 14° WNW visible
16 Mar -3.8 19:02:34 10° WSW 19:05:58 84° SSE 19:09:23 10° ENE visible
16 Mar -2.5 20:39:44 10° W 20:42:27 40° NW 20:42:27 40° NW visible
17 Mar -3.0 19:52:47 10° W 19:56:07 49° N 19:57:37 27° NE visible
17 Mar -0.6 21:29:59 10° WNW 21:30:38 15° WNW 21:30:38 15° WNW visible
18 Mar -3.2 19:05:51 10° W 19:09:13 57° NNW 19:12:34 10° ENE visible
18 Mar -2.5 20:43:06 10° WNW 20:45:44 39° NNW 20:45:44 39° NNW visible
19 Mar -2.9 19:56:10 10° WNW 19:59:26 44° N 20:00:47 28° NE visible
19 Mar -0.6 21:33:09 10° WNW 21:33:47 15° WNW 21:33:47 15° WNW visible
20 Mar -2.9 19:09:11 10° WNW 19:12:28 45° N 19:15:46 10° ENE visible
20 Mar -2.6 20:46:16 10° WNW 20:48:48 44° NW 20:48:48 44° NW visible
21 Mar -3.3 19:59:20 10° WNW 20:02:41 52° NNE 20:03:47 35° ENE visible
21 Mar -0.6 21:36:16 10° WNW 21:36:47 14° WNW 21:36:47 14° WNW visible
22 Mar -3.0 19:12:23 10° WNW 19:15:41 46° N 19:18:46 11° E visible
22 Mar -2.6 20:49:18 10° WNW 20:51:46 44° W 20:51:46 44° W visible
23 Mar -3.8 20:02:20 10° WNW 20:05:45 83° NNE 20:06:44 43° ESE visible
23 Mar -0.5 21:39:36 10° W 21:39:44 11° W 21:39:44 11° W visible
24 Mar -3.5 19:15:22 10° WNW 19:18:46 64° NNE 19:21:43 13° E visible
24 Mar -2.1 20:52:23 10° W 20:54:43 29° WSW 20:54:43 29° WSW visible
